[[{"header":{"parameterUnit":"m.s-1","parameterCategory":1,"la1":30.2991,"la2":30.254,"lo1":-89.0895,"lo2":-89.0444,"dy":0.0017,"dx":0.0017,"nx":28,"ny":28,"refTime":"2025-08-22T09:00:00:Z","depth":0,"parameterNumber":2,"parameterNumberName":"U-component_of_WINDS"},"data":[0,0,0,0,0,0,0,0,0,0,0,0,0,0,0,0,0,0,0,0,0,0,0,0,0,0,0,0,0,0,0,0,0,0,0,0,0,0,0,0,0,0,0,0,0,0,0,0,0,0,0,0,0,0,0,0,0,0,2.6416,2.6417,0,2.6463,2.6463,2.6464,2.6424,2.6422,2.6421,2.6419,2.6464,2.6467,2.647,0,0,0,0,0,0,0,0,0,0,0,0,0,2.6289,2.6292,2.6416,2.6417,2.6417,2.6463,2.6463,2.6464,2.6424,2.6422,2.642,2.6419,2.6464,2.6467,2.647,0,0,0,0,0,0,0,0,0,0,0,0,0,2.6341,2.6293,2.6416,2.6403,2.6402,2.6463,2.6463,2.6464,2.6425,2.6422,2.642,2.6418,2.6462,2.6466,2.647,2.6545,0,0,2.6483,2.6485,0,0,0,0,0,0,0,0,2.6338,2.6346,2.6404,2.6404,2.6403,2.6435,2.6435,2.6491,2.6425,2.6416,2.6419,2.6416,2.6456,2.6461,2.6475,2.6547,2.6549,2.6483,2.6486,2.6488,2.6489,0,0,0,0,0,0,0,2.6334,2.6343,2.6434,2.6405,2.6405,2.6394,2.6398,2.6445,2.6449,2.6417,2.6414,2.642,2.6456,2.6471,2.6476,2.655,2.6483,2.6487,2.6489,2.6491,2.6682,2.6685,0,0,0,0,0,0,2.6333,2.6341,2.6433,2.6436,2.6364,2.6398,2.6403,2.6427,2.6449,2.645,2.6422,2.6418,2.6465,2.6471,2.6477,2.6564,2.6488,2.6491,2.6494,2.668,2.6683,2.6686,0,0,0,0,0,0,2.633,2.6341,2.6431,2.6388,2.6398,2.6403,2.643,2.643,2.6445,2.6453,2.6453,2.6438,2.6464,2.6471,2.6528,2.6565,2.6493,2.6497,2.6677,2.6681,2.6684,2.6739,0,0,0,0,0,0,2.6327,2.6341,2.637,2.6389,2.6401,2.6482,2.6433,2.6432,2.6452,2.6448,2.6467,2.6468,2.6462,2.6522,2.6532,2.6569,2.65,2.6673,2.6679,2.6683,2.6734,2.6744,2.6753,0,0,0,0,0,2.6322,2.6383,2.6372,2.6383,2.6438,2.6485,2.6491,2.6484,2.6456,2.6484,2.6489,2.6468,2.656,2.6528,2.6539,2.6578,2.6671,2.6677,2.6683,2.6729,2.6742,2.6753,0,0,0,0,0,0,2.6368,2.6386,2.6373,2.6442,2.6462,2.6478,2.6514,2.6498,2.6526,2.652,2.6509,2.6514,2.6573,2.6581,2.6546,2.665,2.6611,2.6619,2.6642,2.6654,2.6664,2.666,2.6504,0,0,0,0,0,2.6387,2.6425,2.6437,2.6497,2.6508,2.6509,2.653,2.6522,2.6542,2.655,2.6559,2.6579,2.6612,2.6634,2.6665,2.6735,2.6738,2.6767,2.6777,2.6785,2.6792,2.6827,2.684,2.6705,2.6705,2.6705,0,0,2.6425,2.6439,2.6464,2.6507,2.6522,2.6559,2.6517,2.6559,2.6587,2.6556,2.661,2.6618,2.6638,2.6702,2.673,2.671,2.6829,2.6792,2.6799,2.6801,2.6834,2.6847,2.6858,2.6709,2.6709,2.6708,0,0,2.6513,2.6529,2.6579,2.6595,2.6618,2.6618,2.663,2.6648,2.6652,2.6706,2.6683,2.6715,2.6773,2.6788,2.6804,2.6897,2.6877,2.6907,2.6957,2.6992,2.7002,2.7011,2.7042,2.7054,2.6914,2.6914,2.6914,0,2.6557,2.6615,2.6607,2.6651,2.6669,2.6644,2.6694,2.6709,2.6741,2.6754,2.6732,2.6803,2.6815,2.688,2.6903,2.6917,2.6929,2.6904,2.7001,2.7011,2.7019,2.7048,2.706,2.6918,2.6917,2.6917,2.6917,0,2.6667,2.6707,2.6745,2.6776,2.6799,2.6846,2.6843,2.6868,2.6858,2.686,2.6914,2.6928,2.696,2.6976,2.6967,2.7039,2.7026,2.7003,2.6963,2.7035,2.7063,2.7074,2.6922,2.6921,2.692,2.6919,0,0,2.6785,2.6811,2.6825,2.6838,2.6861,2.6891,2.6936,2.6968,2.6988,2.701,2.7046,2.7095,2.7073,2.7091,2.7083,2.7114,2.7184,2.7087,2.7087,2.7103,2.7262,2.7278,2.7291,2.7172,2.7174,2.7176,2.7259,0,2.6873,2.6951,2.6945,2.7019,2.7054,2.703,2.7069,2.7086,2.7089,2.7119,2.7122,2.7156,2.7126,2.7136,2.7165,2.7169,2.7215,2.7163,2.7203,2.7204,2.7196,2.7306,2.7323,2.7401,2.727,2.7272,2.7273,0,2.6986,2.7012,2.7089,2.7105,2.712,2.7155,2.7182,2.7212,2.723,2.723,2.7249,2.7236,2.7279,2.7239,2.7297,2.7262,2.7278,2.7282,2.7285,2.7287,2.7242,2.7308,2.7426,2.7437,2.729,2.7289,2.7288,0,2.7062,2.7117,2.7169,2.7182,2.7202,2.7227,2.7236,2.7252,2.7272,2.7296,2.7308,2.7337,2.7352,2.7374,2.7368,2.734,2.7427,2.7387,2.7426,2.7426,2.7444,2.7443,2.7564,2.7458,2.7458,2.7458,2.7457,0,2.7159,2.7207,2.7203,2.7236,2.7287,2.7279,2.733,2.7337,2.7351,2.7383,2.7365,2.7394,2.7386,2.7415,2.7411,2.7459,2.7466,2.7466,2.7464,2.7467,2.7466,2.7475,2.7469,2.7461,2.746,2.746,2.7459,0,2.7253,2.7253,2.7308,2.7323,2.7327,2.7365,2.7376,2.7406,2.7407,2.7448,2.7456,2.7458,2.7492,2.7489,2.7526,2.7523,2.7581,2.7574,2.7575,2.7573,2.7611,2.7607,2.7741,2.7757,2.7642,2.7644,2.7644,0,2.7314,2.735,2.7368,2.7388,2.7399,2.7432,2.7452,2.7444,2.7465,2.7488,2.7514,2.7546,2.7571,2.7625,2.7629,2.7657,2.7648,2.7694,2.7652,2.7653,2.7646,2.7644,2.7646,2.7701,2.7702,2.7703,2.7704,0,2.7422,2.742,2.7449,2.7478,2.7501,2.7523,2.7543,2.7561,2.7555,2.7579,2.7613,2.7632,2.767,2.7701,2.7727,2.7735,2.7718,2.7717,2.7728,2.773,2.7728,2.7727,2.7595,2.7714,2.7713,2.7712,2.7712,2.7711,2.75,2.753,2.7547,2.7579,2.7593,2.7612,2.764,2.7645,2.7673,2.7703,2.7697,2.7735,2.7751,2.7784,2.7795,2.7824,2.7807,2.7822,2.7826,2.7829,2.7833,2.7725,2.7829,2.7828,2.7828,2.7828,2.7828,0,2.7605,2.7615,2.7645,2.7673,2.7698,2.7681,2.7702,2.7723,2.7757,2.7773,2.7798,2.7836,2.7865,2.7871,2.7899,2.7921,2.7913,2.7928,2.7925,2.7927,2.7847,2.7834,2.7933,2.7933,2.7933,2.7933,2.7933,2.7933,2.7663,2.7712,2.7711,2.7767,2.7776,2.7813,2.7826,2.7842,2.7855,2.7898,2.7923,2.7927,2.7939,2.7967,2.7993,2.7994,2.8004,2.8021,2.8019,2.7943,2.7933,2.7923,2.7911,2.8024,2.8024,2.8096,2.8097,2.8097]},{"header":{"parameterUnit":"m.s-1","parameterCategory":1,"la1":30.2991,"la2":30.254,"lo1":-89.0895,"lo2":-89.0444,"dy":0.0017,"dx":0.0017,"nx":28,"ny":28,"refTime":"2025-08-22T09:00:00:Z","depth":0,"parameterNumber":3,"parameterNumberName":"V-component_of_WINDS"},"data":[0,0,0,0,0,0,0,0,0,0,0,0,0,0,0,0,0,0,0,0,0,0,0,0,0,0,0,0,0,0,0,0,0,0,0,0,0,0,0,0,0,0,0,0,0,0,0,0,0,0,0,0,0,0,0,0,0,0,0.5698,0.5697,0,0.5683,0.5682,0.5682,0.566,0.5659,0.5659,0.5658,0.5643,0.5643,0.5643,0,0,0,0,0,0,0,0,0,0,0,0,0,0.5706,0.5706,0.5698,0.5697,0.5697,0.5683,0.5682,0.5682,0.566,0.5659,0.5659,0.5658,0.5643,0.5643,0.5643,0,0,0,0,0,0,0,0,0,0,0,0,0,0.5698,0.5706,0.5698,0.5684,0.5683,0.5683,0.5682,0.5682,0.566,0.5659,0.5659,0.5658,0.5643,0.5643,0.5643,0.5655,0,0,0.5643,0.5643,0,0,0,0,0,0,0,0,0.5698,0.5697,0.5686,0.5685,0.5684,0.5672,0.568,0.5673,0.566,0.5669,0.5658,0.5658,0.5653,0.5652,0.5651,0.5654,0.5653,0.5643,0.5643,0.5643,0.5643,0,0,0,0,0,0,0,0.5699,0.5698,0.5692,0.5686,0.5685,0.5679,0.5677,0.5678,0.5665,0.5668,0.5666,0.5665,0.5653,0.5651,0.565,0.5653,0.5643,0.5643,0.5643,0.5643,0.5664,0.5664,0,0,0,0,0,0,0.5701,0.5699,0.5692,0.5691,0.569,0.5679,0.5677,0.5677,0.5664,0.5662,0.5665,0.5664,0.5651,0.5651,0.565,0.5662,0.5643,0.5643,0.5643,0.5663,0.5664,0.5664,0,0,0,0,0,0,0.5702,0.5701,0.5693,0.5694,0.5693,0.5679,0.5679,0.5677,0.5675,0.5662,0.566,0.5666,0.5651,0.565,0.5653,0.5661,0.5643,0.5643,0.5662,0.5663,0.5664,0.5687,0,0,0,0,0,0,0.5702,0.5701,0.5706,0.5695,0.5693,0.5697,0.568,0.5677,0.5675,0.5673,0.5663,0.5661,0.565,0.5654,0.5653,0.5661,0.5643,0.5662,0.5663,0.5664,0.5685,0.5689,0.5691,0,0,0,0,0,0.5702,0.5713,0.5706,0.5706,0.5698,0.5698,0.5697,0.5685,0.5676,0.568,0.5672,0.5661,0.566,0.5654,0.5654,0.5661,0.5661,0.5662,0.5664,0.5684,0.5688,0.5691,0,0,0,0,0,0,0.5726,0.5712,0.5704,0.5711,0.5706,0.5694,0.5699,0.5689,0.5686,0.5684,0.5669,0.5667,0.5672,0.5667,0.5661,0.5671,0.5659,0.566,0.5675,0.5678,0.5681,0.5682,0.5643,0,0,0,0,0,0.5732,0.5733,0.572,0.5728,0.5726,0.5713,0.5712,0.5703,0.5697,0.5694,0.5686,0.568,0.5679,0.5678,0.5676,0.5684,0.5681,0.5689,0.5692,0.5694,0.5696,0.5699,0.5702,0.5669,0.5669,0.5669,0,0,0.5745,0.5737,0.5739,0.5733,0.5727,0.5728,0.5711,0.5713,0.5713,0.5695,0.5697,0.5691,0.5683,0.5689,0.5691,0.5685,0.5704,0.5696,0.5698,0.5698,0.57,0.5703,0.5706,0.567,0.5669,0.5669,0,0,0.5769,0.5763,0.5769,0.5763,0.5755,0.5746,0.5748,0.5737,0.5732,0.5734,0.572,0.572,0.5717,0.5712,0.5709,0.5729,0.5719,0.5729,0.5744,0.5747,0.5749,0.5752,0.5758,0.5761,0.573,0.573,0.573,0,0.5786,0.5786,0.5773,0.5775,0.5772,0.5755,0.576,0.5756,0.5747,0.5746,0.5739,0.5734,0.5728,0.5732,0.5737,0.5735,0.5736,0.573,0.575,0.5752,0.5754,0.576,0.5763,0.5731,0.5731,0.5731,0.5731,0,0.5807,0.5808,0.5813,0.5805,0.5803,0.5807,0.5793,0.5793,0.5783,0.5775,0.5777,0.5769,0.5764,0.5764,0.5755,0.5766,0.5762,0.5753,0.574,0.5759,0.5764,0.5766,0.5733,0.5733,0.5732,0.5732,0,0,0.5847,0.583,0.5832,0.5828,0.5817,0.5817,0.5819,0.5814,0.5814,0.5808,0.5809,0.5807,0.5798,0.5794,0.5785,0.5787,0.5803,0.5777,0.5777,0.5782,0.5813,0.5821,0.5824,0.5795,0.5796,0.5796,0.5814,0,0.5868,0.5871,0.5859,0.5865,0.5865,0.5848,0.585,0.5843,0.5835,0.5833,0.5824,0.5822,0.581,0.5808,0.581,0.5801,0.5809,0.5799,0.5796,0.5796,0.5799,0.5827,0.5835,0.5852,0.5816,0.5816,0.5817,0,0.5894,0.5889,0.5896,0.5883,0.5882,0.5884,0.5878,0.5877,0.5868,0.5862,0.5858,0.5846,0.5847,0.5834,0.5835,0.5828,0.5826,0.5821,0.5822,0.5821,0.5808,0.5827,0.5857,0.586,0.582,0.582,0.5819,0,0.5921,0.5917,0.592,0.5916,0.5902,0.5904,0.5898,0.5888,0.5886,0.588,0.5878,0.5873,0.587,0.5866,0.5853,0.5845,0.5854,0.5841,0.5849,0.5849,0.5852,0.5852,0.5883,0.5851,0.5851,0.5851,0.5851,0,0.5947,0.5951,0.5932,0.5934,0.5938,0.5922,0.5927,0.5919,0.5911,0.591,0.5895,0.5895,0.5878,0.5875,0.5865,0.5867,0.5865,0.586,0.5857,0.5861,0.5862,0.586,0.5859,0.5851,0.5851,0.5851,0.5851,0,0.5979,0.5966,0.5968,0.5954,0.595,0.5954,0.5941,0.5942,0.5932,0.5932,0.5931,0.5916,0.5912,0.5899,0.5892,0.5885,0.5889,0.5884,0.5892,0.5891,0.5899,0.5898,0.5929,0.5932,0.5899,0.5899,0.5899,0,0.5996,0.5999,0.5985,0.5983,0.5978,0.5976,0.5973,0.5957,0.5955,0.5944,0.5946,0.5941,0.5937,0.5931,0.592,0.5914,0.5908,0.5919,0.5907,0.5911,0.5908,0.5908,0.5908,0.5922,0.5923,0.5923,0.5923,0,0.6028,0.6021,0.6017,0.6011,0.6008,0.6002,0.5996,0.5995,0.5978,0.5976,0.5972,0.5968,0.596,0.5955,0.5948,0.5941,0.5929,0.5927,0.5929,0.5933,0.5938,0.5935,0.59,0.5927,0.5926,0.5926,0.5926,0.5926,0.6052,0.6054,0.6044,0.604,0.6033,0.6027,0.6027,0.6017,0.6013,0.6006,0.5997,0.5994,0.5984,0.5972,0.5966,0.5963,0.5956,0.5958,0.5959,0.596,0.5962,0.5938,0.5961,0.5961,0.5961,0.5961,0.5961,0,0.6083,0.6075,0.6072,0.6063,0.606,0.6048,0.604,0.6038,0.6036,0.6027,0.6023,0.6017,0.6012,0.5999,0.5993,0.5993,0.5987,0.5991,0.5991,0.599,0.5968,0.5967,0.5996,0.5996,0.5996,0.5996,0.5996,0.5996,0.6098,0.61,0.6092,0.6089,0.6082,0.6078,0.6075,0.6069,0.6062,0.6056,0.6052,0.6043,0.6033,0.6025,0.602,0.6016,0.6014,0.602,0.6015,0.5995,0.5991,0.5988,0.5987,0.602,0.602,0.6037,0.6037,0.6037]}]]